This is the latest recevied weather packets stored in our database for station/object KO4WIL-13. If no packets are shown the sender has not sent any weather packets the latest 1 day(s).
| Time | Temp. | Humidity | Pressure | Rain* | Wind** | Luminosity | Snow |
|---|---|---|---|---|---|---|---|
| 1778041102 | 18.89° C | 58% | 963.6 hPa | 0.25 mm | 0 m/s | - | - |
| 1778040801 | 18.89° C | 58% | 963.9 hPa | 0 mm | 0.45 m/s, 271° | - | - |
| 1778040499 | 18.89° C | 56% | 963.6 hPa | 0 mm | 0 m/s | - | - |
| 1778040196 | 18.89° C | 58% | 963.8 hPa | 0 mm | 0 m/s | - | - |
| 1778039894 | 18.89° C | 56% | 963.8 hPa | 0 mm | 0.45 m/s, 292° | - | - |
| 1778039592 | 18.89° C | 56% | 963.6 hPa | 0 mm | 0.45 m/s, 309° | - | - |
| 1778039290 | 18.89° C | 57% | 963.7 hPa | 0 mm | 0 m/s | - | - |
| 1778038988 | 19.44° C | 55% | 963.8 hPa | 0 mm | 0.45 m/s, 311° | - | - |
| 1778038686 | 20° C | 53% | 963.8 hPa | 0 mm | 0 m/s | - | - |
| 1778038384 | 20° C | 51% | 963.9 hPa | 0 mm | 0.45 m/s, 262° | - | - |
| 1778038082 | 20° C | 50% | 963.8 hPa | 0 mm | 0.45 m/s, 247° | - | - |
| 1778037780 | 19.44° C | 50% | 963.7 hPa | 0 mm | 0.45 m/s, 251° | - | - |
| 1778037478 | 19.44° C | 52% | 963.7 hPa | 0 mm | 0.45 m/s, 252° | - | - |
| 1778037176 | 18.89° C | 54% | 963.7 hPa | 0 mm | 0.45 m/s, 251° | - | - |
| 1778036873 | 18.89° C | 56% | 963.7 hPa | 0 mm | 0 m/s | - | - |
| 1778036571 | 18.89° C | 58% | 963.6 hPa | 0 mm | 0 m/s | - | - |
| 1778036269 | 18.89° C | 56% | 963.5 hPa | 0 mm | 0 m/s | - | - |
| 1778035967 | 18.89° C | 57% | 963.5 hPa | 0 mm | 0 m/s | - | - |
| 1778035665 | 18.33° C | 57% | 963.6 hPa | 0 mm | 0 m/s | - | - |
| 1778035363 | 18.33° C | 57% | 963.6 hPa | 0 mm | 0 m/s | - | - |
| 1778035061 | 18.33° C | 57% | 963.5 hPa | 0 mm | 0 m/s | - | - |
| 1778034759 | 18.33° C | 58% | 963.6 hPa | 0 mm | 0 m/s | - | - |
| 1778034456 | 18.33° C | 58% | 963.5 hPa | 0 mm | 0 m/s | - | - |
| 1778034155 | 18.89° C | 59% | 963.5 hPa | 0 mm | 0 m/s | - | - |
| 1778033853 | 18.89° C | 59% | 963.6 hPa | 0 mm | 0 m/s | - | - |
* Rain latest hour (hover to see other rain measurements)
** Current wind speed in m/s (hover to see current wind gust speed)